Location: Newark
(9.4667°S, 159.8167°E)
Time: 02:34:35
(UTC+00:00)

Courier 1B Rocket - Pass Details

Date: 26 November 2019
Orbit: 920 x 1202 km, 28.2° (Epoch: 09 December)

Event Time Altitude Azimuth Distance (km) Brightness Sun altitude
Rises 15:44:38 0° 234° (SW) 3,990 - -40.9°
Reaches altitude 10° 15:48:47 10° 214° (SW) 2,975 - -40.1°
Exits shadow 15:50:39 14° 200° (SSW) 2,660 7.4 -39.8°
Maximum altitude 15:53:07 16° 177° (S) 2,469 7.4 -39.3°
Drops below altitude 10° 15:57:17 10° 140° (SE) 2,846 8.1 -38.5°
Sets 16:01:07 0° 119° (ESE) 3,738 9.0 -37.7°
